• In India
  • List of Countries
  • For 7 days
  • Water Temperature
  • Satellite Maps
  • Weather Map
  • Weather Widgets
  • user-avatar
    Login

    Hourly Weather Poperechne

    Today, 17 October, Wednesday

    Time Temperature Precipitation Wind Pressure Humidity
    00:00 +16°C° 0 mm 2 mps 756 mmHg 58%
    01:00 +16°C° 0 mm 2 mps 756 mmHg 60%
    02:00 +15°C° 0 mm 2 mps 755 mmHg 61%
    03:00 +15°C° 0 mm 2 mps 755 mmHg 63%
    04:00 +15°C° 0 mm 2 mps 755 mmHg 65%
    05:00 +14°C° 0 mm 2 mps 755 mmHg 67%
    06:00 +15°C° 0 mm 2 mps 755 mmHg 64%
    07:00 +16°C° 0 mm 2 mps 755 mmHg 61%
    08:00 +17°C° 0 mm 2 mps 755 mmHg 58%
    09:00 +19°C° 0 mm 2 mps 755 mmHg 51%
    10:00 +21°C° 0 mm 3 mps 755 mmHg 45%
    11:00 +24°C° 0 mm 3 mps 755 mmHg 39%
    12:00 +24°C° 0 mm 3 mps 755 mmHg 38%
    13:00 +25°C° 0 mm 3 mps 755 mmHg 36%
    14:00 +25°C° 0 mm 3 mps 754 mmHg 34%
    15:00 +24°C° 0 mm 3 mps 754 mmHg 38%
    16:00 +22°C° 0 mm 3 mps 754 mmHg 42%
    17:00 +20°C° 0 mm 2 mps 754 mmHg 46%
    18:00 +19°C° 0 mm 3 mps 754 mmHg 49%
    19:00 +19°C° 0 mm 3 mps 754 mmHg 51%
    20:00 +18°C° 0 mm 3 mps 754 mmHg 54%
    21:00 +17°C° 0 mm 3 mps 754 mmHg 55%
    22:00 +17°C° 0 mm 3 mps 754 mmHg 57%
    23:00 +16°C° 0 mm 3 mps 754 mmHg 58%

    Tomorrow, 18 October, Thursday

    Time Temperature Precipitation Wind Pressure Humidity
    00:00 +16°C° 0 mm 3 mps 754 mmHg 59%
    01:00 +14°C° 0 mm 3 mps 754 mmHg 60%
    02:00 +14°C° 0 mm 3 mps 754 mmHg 61%
    03:00 +14°C° 0 mm 3 mps 754 mmHg 61%
    04:00 +13°C° 0 mm 3 mps 753 mmHg 62%
    05:00 +13°C° 0 mm 3 mps 753 mmHg 63%
    06:00 +14°C° 0 mm 3 mps 753 mmHg 60%
    07:00 +16°C° 0 mm 3 mps 753 mmHg 57%
    08:00 +17°C° 0 mm 3 mps 753 mmHg 54%
    09:00 +19°C° 0 mm 3 mps 753 mmHg 48%
    10:00 +21°C° 0 mm 4 mps 753 mmHg 43%
    11:00 +22°C° 0 mm 4 mps 753 mmHg 37%
    12:00 +23°C° 0 mm 4 mps 753 mmHg 35%
    13:00 +25°C° 0 mm 4 mps 752 mmHg 34%
    14:00 +25°C° 0 mm 4 mps 752 mmHg 32%
    15:00 +23°C° 0 mm 4 mps 751 mmHg 36%
    16:00 +21°C° 0 mm 4 mps 751 mmHg 39%
    17:00 +20°C° 0 mm 3 mps 751 mmHg 43%
    18:00 +19°C° 0 mm 3 mps 751 mmHg 45%
    19:00 +18°C° 0 mm 3 mps 751 mmHg 47%
    20:00 +17°C° 0 mm 3 mps 751 mmHg 49%
    21:00 +17°C° 0 mm 3 mps 751 mmHg 51%
    22:00 +16°C° 0 mm 3 mps 751 mmHg 52%
    23:00 +16°C° 0 mm 3 mps 751 mmHg 53%

    Day after tomorrow, 19 October, Friday

    Time Temperature Precipitation Wind Pressure Humidity
    00:00 +14°C° 0 mm 3 mps 751 mmHg 55%
    01:00 +14°C° 0 mm 3 mps 750 mmHg 56%
    02:00 +13°C° 0 mm 3 mps 750 mmHg 58%
    03:00 +13°C° 0 mm 3 mps 750 mmHg 60%
    04:00 +12°C° 0 mm 3 mps 750 mmHg 61%
    05:00 +12°C° 0 mm 3 mps 750 mmHg 63%
    06:00 +13°C° 0 mm 3 mps 750 mmHg 60%
    07:00 +14°C° 0 mm 3 mps 750 mmHg 58%
    08:00 +15°C° 0 mm 4 mps 750 mmHg 55%
    09:00 +17°C° 0 mm 4 mps 749 mmHg 50%
    10:00 +19°C° 0 mm 4 mps 749 mmHg 46%
    11:00 +21°C° 0 mm 4 mps 749 mmHg 41%
    12:00 +22°C° 0 mm 4 mps 749 mmHg 39%
    13:00 +22°C° 0 mm 3 mps 748 mmHg 37%
    14:00 +24°C° 0 mm 3 mps 748 mmHg 35%
    15:00 +21°C° 0 mm 3 mps 748 mmHg 38%
    16:00 +20°C° 0 mm 2 mps 747 mmHg 41%
    17:00 +19°C° 0 mm 2 mps 747 mmHg 44%
    18:00 +18°C° 0 mm 2 mps 747 mmHg 46%
    19:00 +17°C° 0 mm 2 mps 747 mmHg 48%
    20:00 +17°C° 0 mm 2 mps 747 mmHg 50%
    21:00 +16°C° 0 mm 1 mps 747 mmHg 51%
    22:00 +16°C° 0 mm 1 mps 747 mmHg 53%
    23:00 +15°C° 0 mm 1 mps 747 mmHg 55%

    20 October, Saturday

    Time Temperature Precipitation Wind Pressure Humidity
    00:00 +15°C° 0 mm 1 mps 747 mmHg 56%
    01:00 +15°C° 0 mm 1 mps 747 mmHg 57%
    02:00 +15°C° 0 mm 1 mps 747 mmHg 58%
    03:00 +15°C° 0 mm 1 mps 747 mmHg 60%
    04:00 +14°C° 0 mm 2 mps 746 mmHg 61%
    05:00 +14°C° 0 mm 2 mps 746 mmHg 62%
    06:00 +15°C° 0 mm 2 mps 747 mmHg 62%
    07:00 +15°C° 0 mm 2 mps 747 mmHg 61%
    08:00 +16°C° 0 mm 2 mps 747 mmHg 60%
    09:00 +17°C° 0 mm 2 mps 747 mmHg 56%
    10:00 +18°C° 0 mm 2 mps 747 mmHg 52%
    11:00 +20°C° 0 mm 2 mps 747 mmHg 48%
    12:00 +20°C° 0 mm 3 mps 747 mmHg 46%
    13:00 +21°C° 0 mm 3 mps 747 mmHg 45%
    14:00 +21°C° 0 mm 3 mps 747 mmHg 43%
    15:00 +20°C° 0 mm 3 mps 747 mmHg 47%
    16:00 +19°C° 0 mm 3 mps 747 mmHg 52%
    17:00 +18°C° 0 mm 3 mps 747 mmHg 57%
    18:00 +17°C° 0 mm 3 mps 748 mmHg 60%
    19:00 +16°C° 0 mm 3 mps 748 mmHg 64%
    20:00 +14°C° 0 mm 3 mps 748 mmHg 67%
    21:00 +14°C° 0 mm 3 mps 748 mmHg 68%
    22:00 +14°C° 0 mm 3 mps 748 mmHg 69%
    23:00 +13°C° 0 mm 3 mps 748 mmHg 70%

    21 October, Sunday

    Time Temperature Precipitation Wind Pressure Humidity
    00:00 +13°C° 0 mm 3 mps 748 mmHg 71%
    01:00 +13°C° 0 mm 3 mps 748 mmHg 72%
    02:00 +13°C° 0 mm 3 mps 748 mmHg 73%
    03:00 +12°C° 0 mm 3 mps 748 mmHg 76%
    04:00 +12°C° 0 mm 3 mps 748 mmHg 78%
    05:00 +12°C° 0 mm 3 mps 748 mmHg 80%
    06:00 +12°C° 0 mm 3 mps 748 mmHg 79%
    07:00 +12°C° 0 mm 3 mps 748 mmHg 78%
    08:00 +12°C° 0 mm 4 mps 748 mmHg 77%
    09:00 +14°C° 0 mm 4 mps 748 mmHg 71%
    10:00 +15°C° 0 mm 4 mps 748 mmHg 66%
    11:00 +17°C° 0 mm 4 mps 748 mmHg 61%
    12:00 +17°C° 0 mm 4 mps 748 mmHg 59%
    13:00 +16°C° 0 mm 5 mps 748 mmHg 57%
    14:00 +17°C° 0 mm 5 mps 748 mmHg 55%
    15:00 +16°C° 0 mm 5 mps 748 mmHg 56%
    16:00 +15°C° 0 mm 4 mps 748 mmHg 58%
    17:00 +15°C° 0 mm 4 mps 748 mmHg 59%
    18:00 +14°C° 0 mm 4 mps 748 mmHg 60%
    19:00 +13°C° 0 mm 5 mps 748 mmHg 61%
    20:00 +12°C° 0 mm 5 mps 749 mmHg 63%
    21:00 +12°C° 0 mm 5 mps 749 mmHg 63%
    22:00 +10°C° 0 mm 5 mps 749 mmHg 63%
    23:00 +10°C° 0 mm 5 mps 749 mmHg 64%

    22 October, Monday

    Time Temperature Precipitation Wind Pressure Humidity
    00:00 +9°C° 0 mm 5 mps 749 mmHg 64%
    01:00 +10°C° 0 mm 4 mps 749 mmHg 64%
    02:00 +8°C° 0 mm 4 mps 749 mmHg 65%
    03:00 +8°C° 0 mm 4 mps 749 mmHg 66%
    04:00 +8°C° 0 mm 4 mps 749 mmHg 68%
    05:00 +7°C° 0 mm 4 mps 749 mmHg 70%
    06:00 +8°C° 0 mm 4 mps 749 mmHg 69%
    07:00 +8°C° 0 mm 4 mps 750 mmHg 68%
    08:00 +8°C° 0 mm 4 mps 750 mmHg 67%
    09:00 +11°C° 0 mm 4 mps 750 mmHg 64%
    10:00 +12°C° 0 mm 4 mps 750 mmHg 62%
    11:00 +13°C° 0 mm 4 mps 750 mmHg 59%
    12:00 +14°C° 0 mm 4 mps 749 mmHg 59%
    13:00 +14°C° 0 mm 4 mps 749 mmHg 59%
    14:00 +16°C° 0 mm 3 mps 749 mmHg 58%
    15:00 +14°C° 0 mm 3 mps 749 mmHg 61%
    16:00 +14°C° 0 mm 3 mps 749 mmHg 63%
    17:00 +14°C° 0 mm 2 mps 749 mmHg 66%
    18:00 +14°C° 0 mm 2 mps 749 mmHg 67%
    19:00 +14°C° 0 mm 2 mps 749 mmHg 68%
    20:00 +13°C° 0 mm 2 mps 749 mmHg 69%
    21:00 +13°C° 0 mm 2 mps 749 mmHg 71%
    22:00 +12°C° 0 mm 2 mps 749 mmHg 73%
    23:00 +12°C° 0 mm 2 mps 749 mmHg 75%
    Show more